SCP
2 2 3 3 3 2 2 2 1 1 1 1 1 1 1 1 1 0 0 0 1 1 1 1 1 1 1 1 1 1 1 1 1 1 1 1 1 1 1 1 1 1 1
2 2 3 3 3 2 2 2 2 1 1 1 1 1 1 1 1 1 0 0 0 1 1 1 1 1 1 1 1 1 1 1 1 1 1 1 1 1 1 1 1 1 1
2 2 2 2 3 2 2 2 2 2 1 1 1 1 1 1 0 1 0 0 0 0 0 1 1 1 1 1 1 1 1 1 1 1 1 1 1 1 1 2 2 2 1
1 1 2 2 2 2 2 2 2 2 1 1 1 1 0 0 0 0 0 0 0 0 0 1 1 1 1 1 1 1 1 1 1 1 1 1 1 1 1 1 2 2 1
1 1 1 1 2 2 2 2 2 2 2 1 1 0 0 0 0 0 0 0 0 0 0 0 0 0 1 1 1 1 1 1 1 1 1 1 1 1 1 1 1 1 1
1 1 1 1 2 2 2 2 2 2 2 1 1 0 0 0 0 0 1 1 0 0 0 0 0 0 0 1 1 1 1 1 1 1 1 1 1 1 1 1 1 1 1
1 1 1 2 2 2 2 2 2 2 2 1 1 0 0 0 0 0 0 0 0 0 0 0 0 0 0 0 1 1 1 1 1 1 1 1 1 1 1 1 1 1 1
1 1 1 1 2 2 2 1 2 2 1 1 1 0 0 0 0 0 0 0 0 0 0 0 0 0 0 0 0 1 1 1 1 1 1 1 2 2 2 2 1 1 1
1 1 1 1 2 2 2 1 2 1 1 1 0 0 0 0 0 0 0 0 0 0 0 0 0 0 0 0 0 0 1 1 1 1 2 2 2 2 2 2 2 1 1
1 1 1 1 1 2 2 2 2 1 1 1 0 0 0 0 0 0 0 0 0 0 0 0 0 0 0 0 0 0 1 1 1 1 2 2 2 2 2 2 2 1 1
1 1 1 1 1 1 2 2 2 1 1 1 0 0 0 0 0 0 0 0 0 0 0 0 0 0 0 0 0 0 1 1 1 1 2 2 2 2 2 2 2 1 1
1 1 1 1 1 1 1 2 2 1 1 1 0 0 0 0 0 0 0 0 0 0 0 0 0 0 0 0 0 0 1 1 1 1 2 2 2 2 2 2 2 2 1
1 1 1 1 1 1 1 1 2 1 1 1 0 0 0 0 0 0 0 0 0 0 0 0 0 0 0 0 0 0 0 1 1 1 1 1 1 2 2 2 2 2 2
1 1 1 1 1 1 1 1 1 1 1 1 1 0 0 0 1 1 1 0 0 0 0 0 0 0 0 0 0 0 0 0 0 0 1 1 1 1 1 1 1 1 1
1 1 1 1 1 1 1 1 1 1 1 1 1 1 1 0 0 0 1 0 0 0 0 0 0 0 0 0 0 0 0 0 0 0 0 1 1 1 1 1 1 1 1
1 1 1 1 1 1 1 1 1 1 1 1 1 1 1 1 0 0 0 0 0 0 0 0 0 0 0 0 0 0 0 0 0 0 0 0 0 0 0 1 1 1 1
1 1 1 1 1 1 1 1 1 1 1 1 1 2 1 1 1 1 1 1 0 0 0 0 0 0 0 0 0 0 0 0 0 0 0 0 0 0 0 0 1 1 0
1 1 1 1 1 1 1 1 1 1 1 1 1 2 2 2 2 1 1 1 1 1 0 0 0 0 0 0 0 0 0 0 0 0 0 0 0 0 0 0 0 0 0
1 1 1 1 1 1 1 1 1 1 1 1 1 2 2 2 2 2 1 1 1 1 0 0 0 0 0 0 0 0 0 0 0 0 0 0 0 0 0 0 0 0 0
0 0 0 1 1 1 1 1 1 1 1 1 1 2 2 2 2 2 2 1 1 1 0 0 0 0 0 0 0 0 0 0 0 0 0 0 0 0 0 0 0 0 0
0 0 0 0 1 1 1 1 1 1 1 1 1 2 2 2 2 2 1 1 1 0 0 0 0 0 0 0 0 0 0 0 0 1 1 1 0 0 0 0 0 0 0
0 0 0 0 1 1 1 1 1 2 2 1 1 1 1 1 1 1 1 0 0 0 0 0 0 0 0 0 0 0 0 0 0 1 1 1 0 0 0 0 0 0 0
0 0 0 0 1 1 1 0 1 2 2 1 1 1 1 0 0 0 0 0 0 0 0 0 0 0 0 0 0 0 0 0 0 1 1 1 0 0 0 0 0 0 0
0 0 0 1 1 1 0 0 0 1 2 2 1 1 1 1 0 0 0 0 0 0 0 0 0 0 0 0 0 0 0 0 0 0 0 0 0 0 0 0 0 0 0
0 0 0 1 1 1 0 0 0 1 1 1 1 1 1 1 0 0 0 0 0 0 0 0 0 0 0 0 0 0 0 0 0 0 0 0 0 0 0 0 0 0 0
0 0 1 1 1 1 0 0 0 1 1 1 1 1 1 0 0 0 0 0 0 0 0 0 0 0 0 0 0 0 0 0 0 0 0 0 0 0 0 0 0 0 0
Wind_Speed
2 2 1 1 1 1 1 1 0 0 0 0 0 0 1 1 1 1 1 3 4 4 5 5 6 7 7 8 8 8 8 8 8 8 7 7 8 8 8 8 9 9 9
2 2 2 1 1 1 1 1 1 1 1 1 1 1 1 1 2 2 2 3 4 4 5 6 6 7 8 8 9 9 9 9 9 8 8 9 8 8 8 8 8 8 9
3 2 2 2 2 1 1 1 0 0 0 1 1 2 1 2 2 2 2 2 2 4 6 6 6 7 8 9 9 10 9 9 9 9 9 9 9 8 8 8 8 9 8
3 2 2 2 1 1 1 1 1 1 0 1 1 1 1 2 2 2 2 2 2 3 4 6 6 7 8 9 10 10 10 9 9 9 9 8 8 8 8 9 9 9 9
3 2 2 1 2 1 1 1 1 1 1 1 1 1 1 2 2 2 2 2 2 3 3 4 6 7 7 7 9 10 10 10 10 9 9 9 8 8 8 8 8 9 9
2 2 2 1 2 1 1 1 1 1 1 0 1 1 1 1 1 1 2 2 2 3 3 3 3 5 6 7 7 7 9 10 10 10 10 9 9 9 9 9 10 10 10
2 2 2 2 2 2 1 1 1 1 0 1 1 2 2 1 1 1 1 1 2 3 3 3 3 3 3 6 7 8 8 8 8 8 9 9 9 9 9 9 10 10 10
2 2 3 2 2 1 1 1 2 1 0 1 1 1 2 3 2 2 2 2 3 3 3 4 3 3 3 3 5 7 8 8 9 9 9 8 9 9 9 10 10 11 11
1 1 2 2 2 2 2 1 2 2 1 0 1 2 1 2 3 3 2 2 3 2 3 3 4 4 4 3 4 6 8 8 9 10 10 9 8 9 10 11 11 12 12
1 1 2 2 2 2 2 2 2 2 3 1 0 0 1 2 1 2 3 2 3 3 4 4 4 4 4 4 5 7 9 9 9 10 10 9 9 9 10 11 11 12 12
1 1 2 2 2 1 1 1 1 2 2 2 2 1 1 0 1 2 3 4 3 3 3 4 4 4 4 4 4 6 9 9 9 10 10 10 10 10 11 12 12 12 13
1 0 1 2 2 1 2 2 2 2 2 2 2 2 2 2 2 2 3 4 4 4 4 4 4 4 4 4 5 8 9 9 9 9 10 10 11 12 12 13 13 14 14
0 1 1 1 1 2 2 2 2 2 2 2 3 2 3 3 2 2 2 3 3 4 3 3 4 4 4 3 5 9 10 10 10 9 10 10 10 11 11 12 13 13 13
1 1 1 1 1 1 1 1 1 2 2 2 3 3 3 3 3 3 3 2 3 3 3 5 3 4 3 4 6 9 7 10 10 10 10 10 10 10 10 11 11 12 12
1 1 0 0 1 1 1 1 1 2 2 3 3 3 3 3 2 3 3 3 3 4 5 4 3 4 3 4 6 5 6 8 10 10 10 10 10 10 10 11 11 11 11
1 1 1 1 1 1 1 1 1 2 2 2 2 2 3 2 2 3 3 3 4 4 5 4 4 5 6 5 7 6 6 10 10 10 10 10 10 10 10 11 11 11 11
1 1 2 1 1 1 1 1 2 2 3 3 2 3 4 3 3 3 3 3 4 4 6 6 4 5 5 6 6 6 6 6 6 10 11 11 11 11 11 11 11 11 11
1 1 1 1 1 1 1 1 2 2 3 3 3 3 4 3 3 3 3 4 4 4 5 7 5 4 5 6 6 7 6 6 6 9 10 11 11 11 11 11 11 11 11
1 1 0 1 1 1 1 2 2 2 2 3 3 4 4 3 4 3 4 4 4 4 4 5 6 4 4 4 5 6 6 5 6 7 8 9 9 10 10 11 11 11 11
0 1 0 0 1 1 1 2 2 2 2 3 3 3 4 4 4 4 4 4 4 4 4 4 5 5 4 4 4 5 6 5 5 6 6 6 7 8 9 10 11 11 11
0 1 1 1 1 1 1 1 1 1 2 3 3 3 3 4 5 4 3 4 3 4 4 4 5 4 5 4 5 4 6 6 6 4 5 4 4 4 5 7 9 10 10
1 1 1 1 1 2 2 3 2 2 2 2 3 4 4 3 4 5 6 6 5 4 4 4 4 5 6 5 5 5 5 5 5 3 4 5 4 5 5 5 7 9 9
1 1 1 1 2 3 3 3 3 1 2 2 3 3 3 3 4 4 5 6 5 5 6 5 5 6 6 5 5 6 5 5 6 4 3 6 4 5 5 5 8 8 8
0 0 1 1 2 3 4 3 3 2 2 2 3 3 3 4 4 4 4 4 5 5 4 3 4 6 6 5 5 5 5 6 6 5 4 5 5 5 5 5 6 8 8
1 1 1 2 2 4 4 3 2 1 2 3 3 3 3 4 5 5 3 4 5 5 5 5 6 6 7 7 5 3 3 3 5 5 2 3 4 5 5 5 5 6 7
1 1 2 2 2 3 4 3 2 1 2 3 3 3 4 4 6 5 2 2 4 5 6 6 5 6 5 5 4 3 3 3 4 4 2 3 3 3 4 3 3 3 3
Wind_Direction
175 174 181 185 198 195 189 184 203 282 308 299 275 266 269 260 249 253 271 272 268 263 261 257 243 231 230 232 235 240 241 239 237 233 228 225 225 226 227 229 227 222 224
180 173 179 190 209 206 203 194 207 213 231 236 265 266 261 263 265 262 263 277 278 271 265 266 260 248 242 242 241 242 242 241 238 237 233 228 226 226 228 229 229 226 222
180 178 181 195 212 192 177 166 199 196 200 239 266 271 263 266 271 268 266 268 278 279 277 274 270 262 257 255 250 246 244 242 239 238 235 230 226 225 225 226 228 228 226
175 173 184 204 198 168 164 169 169 185 253 268 274 278 276 270 274 273 268 266 272 279 284 282 274 268 265 262 256 248 243 243 242 239 237 233 229 227 227 227 229 229 228
179 174 180 201 174 154 158 178 154 161 213 286 277 284 293 282 283 282 282 278 276 276 279 289 285 282 276 273 265 254 247 244 243 242 238 235 232 229 229 229 229 229 229
179 174 174 180 151 133 137 145 143 142 173 236 287 330 315 297 293 285 285 295 297 292 292 291 291 290 289 288 281 270 259 250 245 244 242 238 234 230 231 233 232 231 232
175 175 172 155 145 150 173 165 139 126 95 78 58 356 339 332 317 298 294 303 309 302 297 290 286 282 289 288 286 279 272 262 255 250 247 243 239 232 230 232 234 234 233
172 176 158 159 158 146 134 145 131 133 93 88 107 70 344 336 333 319 303 288 300 304 304 296 286 282 282 282 287 287 284 279 271 261 254 246 242 238 235 234 237 238 237
138 140 155 158 159 160 177 189 170 156 159 88 111 141 156 256 311 317 314 307 311 305 299 297 292 287 284 281 283 288 287 284 278 270 262 251 247 245 242 241 240 240 241
137 139 148 155 157 165 176 193 170 164 154 170 349 122 181 177 213 307 316 314 313 302 301 303 300 293 284 275 273 280 282 281 278 275 270 260 252 251 248 248 246 244 244
103 140 147 153 162 174 180 171 159 164 164 172 179 184 181 170 203 220 289 311 320 304 300 294 287 285 283 272 269 272 279 276 275 274 270 265 259 256 251 249 247 246 246
6 78 148 160 177 187 192 193 187 185 190 181 187 188 189 199 209 208 247 281 297 298 298 286 280 279 279 275 276 287 286 280 272 269 266 264 261 257 252 250 250 248 246
313 264 189 193 194 202 200 191 189 205 205 201 210 215 217 219 202 199 224 261 278 289 292 282 269 273 278 280 283 288 287 283 276 269 265 262 261 259 256 252 251 250 248
223 247 228 222 219 219 212 191 201 223 215 222 230 225 229 233 212 203 208 228 280 287 279 277 285 271 279 284 278 283 285 282 279 272 266 261 259 259 257 254 251 250 249
220 247 243 250 249 236 216 186 217 238 237 235 238 234 236 241 229 225 218 210 228 277 286 278 281 286 292 288 284 285 280 280 278 272 267 262 258 255 254 253 248 246 247
218 248 255 235 230 234 219 200 237 242 234 247 240 244 249 246 242 232 226 226 221 236 266 270 268 284 294 291 291 286 279 281 278 273 268 263 257 254 252 252 249 247 246
210 226 237 221 225 251 253 234 252 255 250 259 260 251 261 252 246 244 236 233 231 225 255 275 271 285 282 289 298 294 284 276 275 271 268 264 259 254 252 252 249 246 245
217 223 220 214 251 274 277 262 266 268 260 262 265 262 267 263 259 256 246 248 245 231 239 271 282 284 279 289 291 292 291 285 279 275 269 266 260 255 253 252 249 246 243
250 258 215 246 269 286 281 273 263 268 274 271 270 268 268 262 269 267 259 258 261 259 243 256 276 279 280 292 300 296 292 285 285 283 275 268 264 260 255 250 248 246 243
291 326 7 299 281 288 283 288 294 300 303 296 286 274 267 257 259 269 272 269 273 277 271 267 274 280 281 292 295 297 302 297 294 294 285 278 269 263 260 255 248 245 241
32 36 41 349 299 281 280 293 307 303 299 302 303 291 279 277 276 273 274 275 276 276 279 276 277 284 288 296 299 295 296 302 292 279 285 283 277 272 269 262 251 244 242
42 46 23 307 306 301 312 310 305 293 299 300 305 311 312 312 312 305 295 283 268 264 270 269 272 278 282 286 291 295 299 304 299 286 282 285 275 271 269 263 255 245 241
65 38 337 329 314 312 318 322 330 315 300 299 298 304 315 322 325 319 317 316 306 287 258 251 266 273 278 286 292 294 292 289 284 291 283 283 279 276 277 269 253 247 243
85 333 324 321 318 315 326 333 338 333 316 310 306 304 308 313 319 324 316 317 317 310 291 273 264 275 281 283 273 275 282 289 286 279 259 275 283 279 282 277 256 246 246
354 316 306 305 305 309 320 327 338 325 325 326 326 327 318 315 319 332 332 326 324 319 315 312 300 295 294 293 289 290 296 299 303 304 283 274 289 296 288 277 269 253 252
289 306 315 302 291 298 309 316 327 312 324 324 328 332 337 333 323 330 330 319 317 314 322 326 324 321 318 315 297 271 274 285 298 296 289 287 292 305 293 283 285 283 274